Preview of NWS' New Version of Forecast
This preview is not operational and should not be used for support decisions.

Regional Weather Roundup (RWR)

Issued by National Weather Service (NWS)

                            
000
ASUS43 KLSX 211357
RWRMO 

WEATHER SUMMARY FOR MISSOURI
NATIONAL WEATHER SERVICE SPRINGFIELD MO
900 AM CDT SAT SEP 21 2019

NOTE: "FAIR" INDICATES FEW OR NO CLOUDS BELOW 12,000 FEET WITH NO
       SIGNIFICANT WEATHER AND/OR OBSTRUCTIONS TO VISIBILITY.
       CURRENT SKY AND/OR WEATHER CONDITIONS ARE NOT AVAILABLE FOR
       CHILLICOTHE AND FARMINGTON.

MOZ001>031-035>038-043-044-053-054-211500-
...NORTHERN AND WESTERN MISSOURI...
  
CITY           SKY/WX    TMP DP  RH WIND       PRES   REMARKS
KANSAS CTY INT CLOUDY    75  71  87 S18G26    29.97S                  
LEE'S SUMMIT   PTSUNNY   76  69  79 S14G25    30.00R                  
ST JOSEPH      PTSUNNY   74  70  87 S14G22    29.94S                  
CHILLICOTHE      N/A     72  71  97 SE6       30.00S                  
     
$$
MOZ066>068-077>081-088>096-101>105-211500-
...SOUTHWEST MISSOURI...
  
CITY           SKY/WX    TMP DP  RH WIND       PRES   REMARKS
SPRINGFIELD    SUNNY     75  67  76 S20G28    30.11R                  
JOPLIN         CLOUDY    75  69  81 S15       30.07R                  
BRANSON        PTSUNNY   75  68  78 S7        30.16R                  
               
$$
MOZ032>034-039>042-045>050-055>058-069>072-211500-
...CENTRAL MISSOURI...  
  
CITY           SKY/WX    TMP DP  RH WIND       PRES   REMARKS
COLUMBIA       NOT AVBL                                               
JEFFERSON CITY PTSUNNY   77  69  76 S13       30.08S                  
ROLLA          PTSUNNY   75  67  76 S13G22    30.13S                  
SEDALIA        PTSUNNY   75  70  84 S16       30.05S                  
WARRENSBURG    PTSUNNY   73  68  83 S18G24    30.01F                  
               
$$
MOZ051-052-059>065-211500-
...EAST CENTRAL MISSOURI...
  
CITY           SKY/WX    TMP DP  RH WIND       PRES   REMARKS
ST LOUIS INTL  CLOUDY    76  67  73 S15       30.14R                  
                   
$$
MOZ072>076-082>087-097>100-106>115-211500-
...SOUTH CENTRAL AND SOUTHEAST MISSOURI...
  
CITY           SKY/WX    TMP DP  RH WIND       PRES   REMARKS
CAPE GIRARDEAU FAIR      76  65  68 S8G17     30.20S                  
POPLAR BLUFF   PTSUNNY   73  65  75 S5        30.20R                  
WEST PLAINS    PTSUNNY   73  68  84 S12G18    30.19S                  
                                       
$$